sat.trackr.live / text

‹ back to catalog

STARLINK-6112

NORAD 57136 · 2023-090AM

PAYLOAD ACTIVE UNKNOWN

§ Identity

Operator
Country
US
Launch date
2023-06-23
Launch site
AFETR
Launch vehicle
Mass (kg)
RCS (m²)

Purposes: comms

External: N2YO · Heavens-Above · Gunter

§ Orbital elements

Epoch: 2026-05-25T04:13:50.160000Z

Period
94.27 min
Inclination
43.0026°
Eccentricity
0.0001419
Mean motion
15.27575585 rev/d
Perigee alt
482.1 km
Apogee alt
484.0 km
Semi-major
6,861.2 km
B*
-7.3096e-6
RAAN
191.1665°
Arg perigee
287.7790°
Mean anomaly
72.2907°
Rev number
16,207

§ Raw data

STARLINK-61121 57136U 23090AM  26145.17627500 -.00000463  00000+0 -73096-5 0  99962 57136  43.0026 191.1665 0001419 287.7790  72.2907 15.27575585162076

JSON: /api/v1/satellites/57136 · /tle

For live sub-satellite position, see the globe view (requires WebGL).

§ Visibility from observer

Set your observer location to see the next 7 days of passes ≥ 10°. The values pass through the URL so the page stays shareable.

No JS? Fill the form by hand. The geolocation button needs JavaScript.